Location: Neuvy Saint Sepulchre
(46.5953°N, 1.8122°E)
Time: 22:02:15
(UTC+02:00)

ISS - Pass Details

Date: 03 April 2019
Orbit: 408 x 410 km, 51.6° (Epoch: 22 April)

Event Time Altitude Azimuth Distance (km) Brightness Sun altitude
Rises 21:40:09 0° 296° (WNW) 2,340 2.1 -13.4°
Reaches altitude 10° 21:42:16 10° 299° (WNW) 1,476 0.5 -13.7°
Maximum altitude 21:45:34 70° 24° (NNE) 439 -3.7 -14.2°
Enters shadow 21:46:59 31° 100° (E) 752 -3.0 -14.5°
